Location: Montr�al
(45.5000°N, 73.5830°W)
Time: 12:29:34
(UTC-04:00)

ISS - All Passes

Search period start: 02 October 2014 00:00
Search period end: 12 October 2014 00:00
Orbit: 413 x 415 km, 51.6° (Epoch: 02 October)

Date Brightness Start Highest point End Pass type
(mag) Time Alt. Az. Time Alt. Az. Time Alt. Az.
02 Oct - 00:00:00 21° NE 23:59:45 23° NE 00:01:18 10° NE night (unlit)
02 Oct - 01:32:26 10° WNW 01:35:21 27° N 01:38:15 10° ENE night (unlit)
02 Oct - 03:09:16 10° NW 03:12:31 50° NNE 03:15:46 10° E night (unlit)
02 Oct - 04:46:09 10° WNW 04:49:07 30° SW 04:52:04 10° SSE visible
02 Oct - 21:29:33 10° SSW 21:32:22 26° SE 21:35:11 10° E night (unlit)
02 Oct - 23:05:36 10° WSW 23:08:53 57° NNW 23:12:11 10° ENE night (unlit)
03 Oct - 00:43:06 10° WNW 00:46:01 27° N 00:48:57 10° ENE night (unlit)
03 Oct - 02:20:08 10° NW 02:23:17 38° NNE 02:26:25 10° E night (unlit)
03 Oct - 03:56:49 10° WNW 04:00:04 50° SW 04:03:17 10° SE night (unlit)
03 Oct - 20:41:17 10° S 20:43:22 16° SE 20:45:28 10° E night (unlit)
03 Oct - 22:16:20 10° WSW 22:19:40 84° NNW 22:23:01 10° ENE night (unlit)
03 Oct - 23:53:41 10° WNW 23:56:41 30° N 23:59:41 10° NE night (unlit)
04 Oct - 01:30:56 10° NW 01:33:58 31° N 01:37:00 10° ENE night (unlit)
04 Oct - 03:07:35 10° WNW 03:10:55 82° SSW 03:14:14 10° ESE night (unlit)
04 Oct - 04:45:33 10° WSW 04:47:08 13° SW 04:48:42 10° SSW night (unlit)
04 Oct - 21:27:12 10° SW 21:30:29 61° SSE 21:33:47 10° ENE night (unlit)
04 Oct - 23:04:14 10° W 23:07:20 35° NNW 23:10:26 10° NE night (unlit)
05 Oct - 00:41:40 10° NW 00:44:36 28° N 00:47:33 10° ENE night (unlit)
05 Oct - 02:18:22 10° WNW 02:21:42 66° NNE 02:25:00 10° ESE night (unlit)
05 Oct - 03:55:32 10° W 03:58:07 21° SW 04:00:42 10° S night (unlit)
05 Oct - 20:38:14 10° SSW 20:41:19 37° SE 20:44:26 10° ENE visible
05 Oct - 22:14:46 10° W 22:17:59 44° NNW 22:21:12 10° NE night (unlit)
05 Oct - 23:52:17 10° WNW 23:55:12 27° N 23:58:06 10° ENE night (unlit)
06 Oct - 01:29:09 10° NW 01:32:24 46° NNE 01:35:37 10° E night (unlit)
06 Oct - 03:05:58 10° WNW 03:09:01 34° SW 03:12:04 10° SSE night (unlit)
06 Oct - 19:49:31 10° S 19:52:12 23° SE 19:54:53 10° E visible
06 Oct - 21:25:21 10° WSW 21:28:39 62° NNW 21:31:58 10° ENE visible
06 Oct - 23:02:49 10° WNW 23:05:45 28° N 23:08:41 10° ENE night (unlit)
07 Oct - 00:39:54 10° NW 00:43:01 36° NNE 00:46:08 10° E night (unlit)
07 Oct - 02:16:33 10° WNW 02:19:50 57° SW 02:23:06 10° SE night (unlit)
07 Oct - 19:01:19 10° SSE 19:03:06 14° SE 19:04:53 10° E visible
07 Oct - 20:36:00 10° WSW 20:39:20 87° SSE 20:42:40 10° ENE visible
07 Oct - 22:13:17 10° WNW 22:16:18 31° N 22:19:19 10° NE night (unlit)
07 Oct - 23:50:34 10° NW 23:53:34 30° N 23:56:35 10° ENE night (unlit)
08 Oct - 01:27:13 10° WNW 01:30:33 89° NNE 01:33:53 10° ESE night (unlit)
08 Oct - 03:04:53 10° W 03:06:49 15° SW 03:08:45 10° S night (unlit)
08 Oct - 19:46:47 10° SW 19:50:02 53° SE 19:53:18 10° ENE visible
08 Oct - 21:23:42 10° W 21:26:50 37° NNW 21:29:58 10° NE visible
08 Oct - 23:01:09 10° WNW 23:04:05 28° N 23:07:00 10° ENE night (unlit)
09 Oct - 00:37:54 10° WNW 00:41:12 59° NNE 00:44:29 10° ESE night (unlit)
09 Oct - 02:14:55 10° W 02:17:40 24° SW 02:20:24 10° SSE night (unlit)
09 Oct - 18:57:46 10° SSW 19:00:46 32° SE 19:03:47 10° ENE visible
09 Oct - 20:34:08 10° W 20:37:22 48° NNW 20:40:37 10° NE visible
09 Oct - 22:11:38 10° WNW 22:14:33 27° N 22:17:27 10° ENE visible
09 Oct - 23:48:33 10° NW 23:51:45 43° NNE 23:54:57 10° E night (unlit)
10 Oct - 01:25:18 10° WNW 01:28:26 39° SW 01:31:33 10° SSE night (unlit)
10 Oct - 18:09:03 10° S 18:11:32 20° SE 18:14:02 10° E daylight
10 Oct - 19:44:36 10° WSW 19:47:55 70° NNW 19:51:15 10° ENE visible
10 Oct - 21:22:02 10° WNW 21:24:59 28° N 21:27:56 10° NE visible
10 Oct - 22:59:10 10° NW 23:02:15 34° NNE 23:05:20 10° E night (unlit)
11 Oct - 00:35:48 10° WNW 00:39:06 66° SSW 00:42:24 10° SE night (unlit)
11 Oct - 17:21:00 10° SSE 17:22:20 12° SE 17:23:39 10° ESE daylight
11 Oct - 18:55:11 10° SW 18:58:30 77° SSE 19:01:50 10° ENE visible
11 Oct - 20:32:22 10° WNW 20:35:24 32° NNW 20:38:27 10° NE visible
11 Oct - 22:09:42 10° NW 22:12:41 29° N 22:15:39 10° ENE visible
11 Oct - 23:46:21 10° WNW 23:49:42 79° NNE 23:53:01 10° ESE night (unlit)
